Location: Carrières
(48.9495°N, 2.0407°E)
Time: 23:39:47
(UTC+00:00)

Cosmos 1763 Rocket - Pass Details

Date: 28 January 2023
Orbit: 733 x 778 km, 74.0° (Epoch: 01 April)

Event Time Altitude Azimuth Distance (km) Brightness Sun altitude
Rises 18:57:57 0° 337° (NNW) 3,241 7.0 -22.2°
Reaches altitude 10° 19:00:21 10° 339° (NNW) 2,304 6.2 -22.6°
Maximum altitude 19:05:35 77° 66° (ENE) 778 3.3 -23.5°
Enters shadow 19:06:44 54° 138° (SE) 912 3.6 -23.6°
